This is the latest recevied weather packets stored in our database for station/object EA7URS-13. If no packets are shown the sender has not sent any weather packets the latest 10 day(s).
| Time | Temp. | Humidity | Pressure | Rain* | Wind** | Luminosity | Snow |
|---|---|---|---|---|---|---|---|
| 1788335032 | 23.33° C | 56% | 1011.7 hPa | 0 mm | - | 168 W/m² | - |
| 1788334731 | 23.33° C | 57% | 1011.7 hPa | 0 mm | - | 144 W/m² | - |
| 1788334430 | 23.33° C | 57% | 1011.7 hPa | 0 mm | - | 144 W/m² | - |
| 1788334129 | 22.78° C | 58% | 1011.6 hPa | 0 mm | - | 120 W/m² | - |
| 1788333828 | 22.78° C | 58% | 1011.6 hPa | 0 mm | - | 120 W/m² | - |
| 1788333526 | 22.78° C | 60% | 1011.5 hPa | 0 mm | - | 99 W/m² | - |
| 1788333226 | 22.78° C | 60% | 1011.5 hPa | 0 mm | - | 99 W/m² | - |
| 1788332924 | 22.22° C | 61% | 1011.6 hPa | 0 mm | - | 78 W/m² | - |
| 1788332623 | 22.22° C | 61% | 1011.6 hPa | 0 mm | - | 78 W/m² | - |
| 1788332322 | 21.67° C | 63% | 1011.6 hPa | 0 mm | - | 59 W/m² | - |
| 1788332021 | 21.67° C | 63% | 1011.6 hPa | 0 mm | - | 59 W/m² | - |
| 1788331720 | 21.67° C | 64% | 1011.8 hPa | 0 mm | - | 44 W/m² | - |
| 1788331419 | 21.67° C | 64% | 1011.8 hPa | 0 mm | - | 44 W/m² | - |
| 1788331118 | 22.22° C | 63% | 1011.7 hPa | 0 mm | - | 29 W/m² | - |
| 1788330817 | 22.22° C | 63% | 1011.7 hPa | 0 mm | - | 29 W/m² | - |
| 1788330516 | 22.78° C | 60% | 1011.6 hPa | 0 mm | - | 20 W/m² | - |
| 1788330215 | 22.78° C | 60% | 1011.6 hPa | 0 mm | - | 20 W/m² | - |
| 1788329914 | 22.78° C | 59% | 1011.7 hPa | 0 mm | - | 11 W/m² | - |
| 1788329613 | 22.78° C | 59% | 1011.7 hPa | 0 mm | - | 11 W/m² | - |
| 1788329312 | 22.22° C | 59% | 1011.7 hPa | 0 mm | - | 6 W/m² | - |
| 1788329011 | 22.22° C | 59% | 1011.7 hPa | 0 mm | - | 6 W/m² | - |
| 1788328709 | 22.78° C | 58% | 1011.5 hPa | 0 mm | - | 2 W/m² | - |
| 1788328408 | 22.78° C | 58% | 1011.5 hPa | 0 mm | - | 2 W/m² | - |
| 1788328107 | 22.78° C | 57% | 1011.4 hPa | 0 mm | - | 0 W/m² | - |
| 1788327805 | 22.78° C | 57% | 1011.4 hPa | 0 mm | - | 0 W/m² | - |
* Rain latest hour (hover to see other rain measurements)
** Current wind speed in m/s (hover to see current wind gust speed)